Time,TemperatureF,DewpointF,PressureIn,WindDirection,WindDirectionDegrees,WindSpeedMPH,WindSpeedGustMPH,Humidity,HourlyPrecipIn,Conditions,Clouds,dailyrainin,SolarRadiationWatts/m^2,SoftwareType,DateUTC
2013-09-14 00:01:00,60.8,54.9,29.73,NW,315,3.5,0.0,81,0.00,RA,OVC,0.00,0.0,WeatherDisplay:10.37,2013-09-14 04:01:00,
2013-09-14 00:02:00,60.8,54.9,29.73,North,354,0.0,0.0,81,0.00,RA,OVC,0.00,0.0,WeatherDisplay:10.37,2013-09-14 04:02:00,
2013-09-14 00:07:00,60.8,54.9,29.73,NNW,335,0.0,0.0,81,0.00,RA,OVC,0.00,0.0,WeatherDisplay:10.37,2013-09-14 04:07:00,
2013-09-14 00:12:00,60.6,54.8,29.73,WNW,287,3.5,3.5,81,0.00,OVC,,0.00,0.0,WeatherDisplay:10.37,2013-09-14 04:12:00,
2013-09-14 00:17:00,60.6,54.4,29.73,NW,316,3.5,0.0,80,0.00,OVC,,0.00,0.0,WeatherDisplay:10.37,2013-09-14 04:17:00,
2013-09-14 00:22:00,60.6,54.4,29.73,NNW,340,2.3,0.0,80,0.00,OVC,,0.00,0.0,WeatherDisplay:10.37,2013-09-14 04:22:00,
2013-09-14 00:27:00,60.4,54.2,29.76,NNW,331,8.1,8.1,80,0.00,OVC,,0.00,0.0,WeatherDisplay:10.37,2013-09-14 04:27:00,
2013-09-14 00:32:00,60.4,54.2,29.76,WNW,294,3.5,3.5,80,0.00,OVC,,0.00,0.0,WeatherDisplay:10.37,2013-09-14 04:32:00,
2013-09-14 00:37:00,60.4,54.2,29.76,NNW,330,2.3,0.0,80,0.00,OVC,,0.00,0.0,WeatherDisplay:10.37,2013-09-14 04:37:00,
2013-09-14 00:42:00,60.4,54.2,29.76,NW,316,3.5,3.5,80,0.00,OVC,,0.00,0.0,WeatherDisplay:10.37,2013-09-14 04:42:00,
2013-09-14 00:47:00,60.4,54.2,29.76,NW,305,0.0,0.0,80,0.00,OVC,,0.00,0.0,WeatherDisplay:10.37,2013-09-14 04:47:00,
2013-09-14 00:52:00,60.4,53.9,29.76,NNW,334,3.5,3.6,79,0.00,OVC,,0.00,0.0,WeatherDisplay:10.37,2013-09-14 04:52:00,
2013-09-14 00:57:00,60.4,53.9,29.76,North,9,0.0,0.0,79,0.00,OVC,,0.00,0.0,WeatherDisplay:10.37,2013-09-14 04:57:00,
2013-09-14 01:02:00,60.4,53.9,29.76,NW,324,2.3,0.0,79,0.00,OVC,,0.00,0.0,WeatherDisplay:10.37,2013-09-14 05:02:00,
2013-09-14 01:07:00,60.3,53.7,29.76,NW,319,0.0,0.0,79,0.00,OVC,,0.00,0.0,WeatherDisplay:10.37,2013-09-14 05:07:00,
2013-09-14 01:12:00,60.3,53.7,29.76,NW,320,2.3,0.0,79,0.00,OVC,,0.00,0.0,WeatherDisplay:10.37,2013-09-14 05:12:00,
2013-09-14 01:17:00,60.3,53.7,29.76,NNW,343,2.3,0.0,79,0.00,OVC,,0.00,0.0,WeatherDisplay:10.37,2013-09-14 05:17:00,
2013-09-14 01:22:00,60.3,53.7,29.76,NNW,338,0.0,0.0,79,0.00,OVC,,0.00,0.0,WeatherDisplay:10.37,2013-09-14 05:22:00,
2013-09-14 01:27:00,60.1,53.5,29.76,NNW,332,0.0,0.0,79,0.00,OVC,,0.00,0.0,WeatherDisplay:10.37,2013-09-14 05:27:00,
2013-09-14 01:32:00,60.1,53.5,29.76,NW,312,0.0,0.0,79,0.00,OVC,,0.00,0.0,WeatherDisplay:10.37,2013-09-14 05:32:00,
2013-09-14 01:37:00,60.1,53.5,29.76,NW,312,0.0,0.0,79,0.00,OVC,,0.00,0.0,WeatherDisplay:10.37,2013-09-14 05:37:00,
2013-09-14 01:42:00,60.1,53.5,29.76,North,4,0.0,0.0,79,0.00,OVC,,0.00,0.0,WeatherDisplay:10.37,2013-09-14 05:42:00,
2013-09-14 01:47:00,60.1,53.5,29.76,NNE,12,0.0,0.0,79,0.00,OVC,,0.00,0.0,WeatherDisplay:10.37,2013-09-14 05:47:00,
2013-09-14 01:52:00,59.9,53.4,29.76,NNW,327,0.0,0.0,79,0.00,OVC,,0.00,0.0,WeatherDisplay:10.37,2013-09-14 05:52:00,
2013-09-14 01:57:00,59.9,53.4,29.76,WNW,294,0.0,0.0,79,0.00,OVC,,0.00,0.0,WeatherDisplay:10.37,2013-09-14 05:57:00,
2013-09-14 02:02:00,59.7,53.2,29.76,NNW,328,0.0,0.0,79,0.00,OVC,,0.00,0.0,WeatherDisplay:10.37,2013-09-14 06:02:00,
2013-09-14 02:07:00,59.7,53.2,29.76,NNW,328,0.0,0.0,79,0.00,OVC,,0.00,0.0,WeatherDisplay:10.37,2013-09-14 06:07:00,
2013-09-14 02:12:00,59.5,53.0,29.76,NNW,332,0.0,0.0,79,0.00,OVC,,0.00,0.0,WeatherDisplay:10.37,2013-09-14 06:12:00,
2013-09-14 02:17:00,59.5,53.0,29.76,NW,324,0.0,0.0,79,0.00,OVC,,0.00,0.0,WeatherDisplay:10.37,2013-09-14 06:17:00,
2013-09-14 02:22:00,59.5,53.4,29.76,NW,308,0.0,0.0,80,0.00,OVC,,0.00,0.0,WeatherDisplay:10.37,2013-09-14 06:22:00,
2013-09-14 02:27:00,59.4,53.2,29.76,NW,316,3.5,3.5,80,0.00,OVC,,0.00,0.0,WeatherDisplay:10.37,2013-09-14 06:27:00,
2013-09-14 02:31:00,59.4,53.2,29.76,NNW,331,4.6,4.6,80,0.00,OVC,,0.00,0.0,WeatherDisplay:10.37,2013-09-14 06:31:00,
2013-09-14 02:36:00,59.2,52.7,29.76,NW,304,3.5,3.5,79,0.00,OVC,,0.00,0.0,WeatherDisplay:10.37,2013-09-14 06:36:00,
2013-09-14 02:41:00,59.2,52.7,29.76,North,353,5.8,5.8,79,0.00,OVC,,0.00,0.0,WeatherDisplay:10.37,2013-09-14 06:41:00,
2013-09-14 02:46:00,59.2,52.7,29.76,NW,317,2.3,0.0,79,0.00,OVC,,0.00,0.0,WeatherDisplay:10.37,2013-09-14 06:46:00,
2013-09-14 02:51:00,59.0,52.5,29.76,NW,315,0.0,2.2,79,0.00,OVC,,0.00,0.0,WeatherDisplay:10.37,2013-09-14 06:51:00,
2013-09-14 02:56:00,59.0,52.5,29.79,NW,319,3.5,3.5,79,0.00,OVC,,0.00,0.0,WeatherDisplay:10.37,2013-09-14 06:56:00,
2013-09-14 03:01:00,59.0,52.5,29.79,WNW,284,3.5,0.0,79,0.00,OVC,,0.00,0.0,WeatherDisplay:10.37,2013-09-14 07:01:00,
2013-09-14 03:06:00,59.0,52.5,29.79,NW,324,4.6,4.6,79,0.00,OVC,,0.00,0.0,WeatherDisplay:10.37,2013-09-14 07:06:00,
2013-09-14 03:11:00,58.8,52.7,29.79,NW,325,0.0,0.0,80,0.00,OVC,,0.00,0.0,WeatherDisplay:10.37,2013-09-14 07:11:00,
2013-09-14 03:16:00,58.8,52.7,29.79,NNW,343,0.0,0.0,80,0.00,OVC,,0.00,0.0,WeatherDisplay:10.37,2013-09-14 07:16:00,
2013-09-14 03:21:00,58.8,52.7,29.79,NNW,343,0.0,0.0,80,0.00,OVC,,0.00,0.0,WeatherDisplay:10.37,2013-09-14 07:21:00,
2013-09-14 03:26:00,58.6,52.5,29.79,WNW,297,0.0,0.0,80,0.00,OVC,,0.00,0.0,WeatherDisplay:10.37,2013-09-14 07:26:00,
2013-09-14 03:31:00,58.5,52.3,29.79,NNW,336,0.0,0.0,80,0.00,OVC,,0.00,0.0,WeatherDisplay:10.37,2013-09-14 07:31:00,
2013-09-14 03:36:00,58.5,52.3,29.79,NW,315,0.0,0.0,80,0.00,OVC,,0.00,0.0,WeatherDisplay:10.37,2013-09-14 07:36:00,
2013-09-14 03:41:00,58.3,52.1,29.79,NW,310,0.0,0.0,80,0.00,OVC,,0.00,0.0,WeatherDisplay:10.37,2013-09-14 07:41:00,
2013-09-14 03:46:00,58.3,52.1,29.79,NNW,338,0.0,0.0,80,0.00,OVC,,0.00,0.0,WeatherDisplay:10.37,2013-09-14 07:46:00,
2013-09-14 03:51:00,58.1,52.0,29.79,NW,314,0.0,0.0,80,0.00,OVC,,0.00,0.0,WeatherDisplay:10.37,2013-09-14 07:51:00,
2013-09-14 03:56:00,58.1,52.0,29.79,WNW,295,0.0,0.0,80,0.00,OVC,,0.00,0.0,WeatherDisplay:10.37,2013-09-14 07:56:00,
2013-09-14 04:01:00,57.9,52.1,29.79,NW,317,0.0,0.0,81,0.00,OVC,,0.00,0.0,WeatherDisplay:10.37,2013-09-14 08:01:00,
2013-09-14 04:06:00,57.9,52.1,29.79,NW,313,0.0,0.0,81,0.00,CLR,OVC,0.00,0.0,WeatherDisplay:10.37,2013-09-14 08:06:00,
2013-09-14 04:11:00,57.7,51.9,29.79,NNW,333,0.0,0.0,81,0.00,CLR,OVC,0.00,0.0,WeatherDisplay:10.37,2013-09-14 08:11:00,
2013-09-14 04:16:00,57.6,52.1,29.79,NNW,334,0.0,0.0,82,0.00,CLR,OVC,0.00,0.0,WeatherDisplay:10.37,2013-09-14 08:16:00,
2013-09-14 04:21:00,57.6,52.1,29.79,NNW,333,0.0,0.0,82,0.00,CLR,OVC,0.00,0.0,WeatherDisplay:10.37,2013-09-14 08:21:00,
2013-09-14 04:26:00,57.4,52.3,29.76,North,357,0.0,0.0,83,0.00,CLR,OVC,0.00,0.0,WeatherDisplay:10.37,2013-09-14 08:26:00,
2013-09-14 04:31:00,57.2,52.1,29.76,North,360,3.5,3.5,83,0.00,CLR,OVC,0.00,0.0,WeatherDisplay:10.37,2013-09-14 08:31:00,
2013-09-14 04:36:00,57.2,52.4,29.76,NNW,336,4.0,4.0,84,0.00,CLR,OVC,0.00,0.0,WeatherDisplay:10.37,2013-09-14 08:36:00,
2013-09-14 04:41:00,57.0,52.2,29.79,West,265,3.5,3.5,84,0.00,CLR,OVC,0.00,0.0,WeatherDisplay:10.37,2013-09-14 08:41:00,
2013-09-14 04:46:00,57.0,52.2,29.79,NW,310,3.5,3.5,84,0.00,CLR,OVC,0.00,0.0,WeatherDisplay:10.37,2013-09-14 08:46:00,
2013-09-14 04:51:00,56.8,52.1,29.79,WNW,293,3.5,3.5,84,0.00,CLR,OVC,0.00,0.0,WeatherDisplay:10.37,2013-09-14 08:51:00,
2013-09-14 04:56:00,56.8,52.1,29.79,WNW,295,0.0,0.0,84,0.00,CLR,OVC,0.00,0.0,WeatherDisplay:10.37,2013-09-14 08:56:00,
2013-09-14 05:01:00,56.7,52.2,29.79,North,2,0.0,0.0,85,0.00,CLR,OVC,0.00,0.0,WeatherDisplay:10.37,2013-09-14 09:01:00,
2013-09-14 05:06:00,56.5,52.0,29.79,WNW,302,0.0,0.0,85,0.00,CLR,OVC,0.00,0.0,WeatherDisplay:10.37,2013-09-14 09:06:00,
2013-09-14 05:11:00,56.3,51.8,29.79,WNW,303,0.0,0.0,85,0.00,CLR,OVC,0.00,0.0,WeatherDisplay:10.37,2013-09-14 09:11:00,
2013-09-14 05:16:00,56.1,51.7,29.79,NW,310,0.0,0.0,85,0.00,CLR,OVC,0.00,0.0,WeatherDisplay:10.37,2013-09-14 09:16:00,
2013-09-14 05:21:00,56.1,52.0,29.79,WNW,292,0.0,0.0,86,0.00,CLR,OVC,0.00,0.0,WeatherDisplay:10.37,2013-09-14 09:21:00,
2013-09-14 05:26:00,55.9,51.8,29.79,NW,321,3.5,3.5,86,0.00,CLR,OVC,0.00,0.0,WeatherDisplay:10.37,2013-09-14 09:26:00,
2013-09-14 05:31:00,55.9,51.8,29.79,NW,311,5.8,5.8,86,0.00,CLR,OVC,0.00,0.0,WeatherDisplay:10.37,2013-09-14 09:31:00,
2013-09-14 05:36:00,55.8,51.9,29.79,WNW,302,2.3,0.0,87,0.00,CLR,OVC,0.00,0.0,WeatherDisplay:10.37,2013-09-14 09:36:00,
2013-09-14 05:41:00,55.8,51.9,29.82,NW,307,5.8,5.8,87,0.00,CLR,OVC,0.00,0.0,WeatherDisplay:10.37,2013-09-14 09:41:00,
2013-09-14 05:46:00,55.8,51.9,29.82,NNW,332,0.0,0.0,87,0.00,CLR,OVC,0.00,0.0,WeatherDisplay:10.37,2013-09-14 09:46:00,
2013-09-14 05:51:00,55.6,51.8,29.82,WNW,291,2.3,0.0,87,0.00,CLR,OVC,0.00,0.0,WeatherDisplay:10.37,2013-09-14 09:51:00,
2013-09-14 05:56:00,55.6,51.8,29.82,WNW,291,0.0,0.0,87,0.00,CLR,OVC,0.00,0.0,WeatherDisplay:10.37,2013-09-14 09:56:00,
2013-09-14 06:01:00,55.6,51.8,29.82,WNW,290,0.0,0.0,87,0.00,CLR,OVC,0.00,0.0,WeatherDisplay:10.37,2013-09-14 10:01:00,
2013-09-14 06:06:00,55.4,51.6,29.82,NW,304,0.0,0.0,87,0.00,FEW,OVC,0.00,0.0,WeatherDisplay:10.37,2013-09-14 10:06:00,
2013-09-14 06:11:00,55.4,51.6,29.82,WNW,292,0.0,0.0,87,0.00,FEW,OVC,0.00,0.0,WeatherDisplay:10.37,2013-09-14 10:11:00,
2013-09-14 06:16:00,55.2,51.7,29.82,NNW,331,0.0,0.0,88,0.00,FEW,OVC,0.00,0.0,WeatherDisplay:10.37,2013-09-14 10:16:00,
2013-09-14 06:21:00,55.0,51.5,29.82,NW,308,0.0,0.0,88,0.00,FEW,OVC,0.00,0.0,WeatherDisplay:10.37,2013-09-14 10:21:00,
2013-09-14 06:26:00,54.9,51.4,29.82,WNW,294,0.0,0.0,88,0.00,FEW,OVC,0.00,0.0,WeatherDisplay:10.37,2013-09-14 10:26:00,
2013-09-14 06:31:00,54.7,51.2,29.82,NW,310,0.0,0.0,88,0.00,FEW,OVC,0.00,0.0,WeatherDisplay:10.37,2013-09-14 10:31:00,
2013-09-14 06:36:00,54.5,51.0,29.82,NW,304,0.0,0.0,88,0.00,FEW,OVC,0.00,0.0,WeatherDisplay:10.37,2013-09-14 10:36:00,
2013-09-14 06:41:00,54.3,50.8,29.82,NNW,337,0.0,0.0,88,0.00,FEW,OVC,0.00,0.0,WeatherDisplay:10.37,2013-09-14 10:41:00,
2013-09-14 06:46:00,54.1,50.7,29.82,NNW,336,0.0,0.0,88,0.00,FEW,OVC,0.00,0.0,WeatherDisplay:10.37,2013-09-14 10:46:00,
2013-09-14 06:51:00,54.0,50.5,29.82,NW,312,0.0,0.0,88,0.00,FEW,OVC,0.00,0.0,WeatherDisplay:10.37,2013-09-14 10:51:00,
2013-09-14 06:56:00,53.8,50.3,29.82,NW,311,0.0,0.0,88,0.00,FEW,OVC,0.00,0.0,WeatherDisplay:10.37,2013-09-14 10:56:00,
2013-09-14 07:01:00,53.6,50.4,29.82,WNW,302,0.0,0.0,89,0.00,FEW,OVC,0.00,0.0,WeatherDisplay:10.37,2013-09-14 11:01:00,
2013-09-14 07:06:00,53.6,50.4,29.82,WNW,302,0.0,0.0,89,0.00,SCT,OVC,0.00,0.0,WeatherDisplay:10.37,2013-09-14 11:06:00,
2013-09-14 07:11:00,53.4,50.3,29.85,NW,316,0.0,0.0,89,0.00,SCT,OVC,0.00,0.0,WeatherDisplay:10.37,2013-09-14 11:11:00,
2013-09-14 07:16:00,53.4,50.3,29.85,NW,316,0.0,0.0,89,0.00,SCT,OVC,0.00,0.0,WeatherDisplay:10.37,2013-09-14 11:16:00,
2013-09-14 07:21:00,53.2,50.1,29.85,WNW,293,0.0,0.0,89,0.00,SCT,OVC,0.00,0.0,WeatherDisplay:10.37,2013-09-14 11:21:00,
2013-09-14 07:26:00,53.2,50.1,29.85,WNW,293,0.0,0.0,89,0.00,SCT,OVC,0.00,0.0,WeatherDisplay:10.37,2013-09-14 11:26:00,
2013-09-14 07:31:00,53.2,50.1,29.85,NW,311,0.0,0.0,89,0.00,SCT,OVC,0.00,0.0,WeatherDisplay:10.37,2013-09-14 11:31:00,
2013-09-14 07:36:00,53.2,50.1,29.85,NNW,332,3.5,3.6,89,0.00,SCT,OVC,0.00,0.0,WeatherDisplay:10.37,2013-09-14 11:36:00,
2013-09-14 07:41:00,53.2,50.4,29.85,NW,320,5.8,5.8,90,0.00,SCT,OVC,0.00,0.0,WeatherDisplay:10.37,2013-09-14 11:41:00,
2013-09-14 07:46:00,53.4,50.6,29.85,NNW,332,5.8,5.8,90,0.00,SCT,OVC,0.00,0.0,WeatherDisplay:10.37,2013-09-14 11:46:00,
2013-09-14 07:51:00,53.6,50.7,29.85,West,273,3.5,3.5,90,0.00,SCT,OVC,0.00,0.0,WeatherDisplay:10.37,2013-09-14 11:51:00,
2013-09-14 07:56:00,53.8,50.9,29.85,NNW,329,5.8,5.8,90,0.00,SCT,OVC,0.00,0.0,WeatherDisplay:10.37,2013-09-14 11:56:00,
2013-09-14 08:01:00,54.0,51.4,29.85,NNW,330,3.5,3.5,91,0.00,SCT,OVC,0.00,0.0,WeatherDisplay:10.37,2013-09-14 12:01:00,
2013-09-14 08:06:00,54.3,51.7,29.85,WNW,288,4.6,4.6,91,0.00,SCT,OVC,0.00,0.0,WeatherDisplay:10.37,2013-09-14 12:06:00,
2013-09-14 08:11:00,54.5,51.9,29.85,WNW,298,3.5,3.5,91,0.00,SCT,OVC,0.00,0.0,WeatherDisplay:10.37,2013-09-14 12:11:00,
2013-09-14 08:16:00,54.9,52.3,29.85,North,8,5.8,5.8,91,0.00,SCT,OVC,0.00,0.0,WeatherDisplay:10.37,2013-09-14 12:16:00,
2013-09-14 08:21:00,55.0,52.5,29.85,WNW,302,4.6,4.6,91,0.00,SCT,OVC,0.00,0.0,WeatherDisplay:10.37,2013-09-14 12:21:00,
2013-09-14 08:26:00,55.4,52.8,29.85,NW,314,2.3,0.0,91,0.00,SCT,OVC,0.00,0.0,WeatherDisplay:10.37,2013-09-14 12:26:00,
2013-09-14 08:31:00,55.8,53.2,29.85,NW,317,6.9,6.9,91,0.00,SCT,OVC,0.00,0.0,WeatherDisplay:10.37,2013-09-14 12:31:00,
2013-09-14 08:36:00,55.9,53.4,29.85,WNW,284,3.5,3.6,91,0.00,SCT,OVC,0.00,0.0,WeatherDisplay:10.37,2013-09-14 12:36:00,
2013-09-14 08:41:00,56.3,53.7,29.85,WNW,300,3.5,3.5,91,0.00,SCT,OVC,0.00,0.0,WeatherDisplay:10.37,2013-09-14 12:41:00,
2013-09-14 08:46:00,56.7,54.1,29.85,NNW,338,8.1,8.1,91,0.00,SCT,OVC,0.00,0.0,WeatherDisplay:10.37,2013-09-14 12:46:00,
2013-09-14 08:52:00,56.8,53.9,29.85,North,5,5.8,5.8,90,0.00,SCT,OVC,0.00,0.0,WeatherDisplay:10.37,2013-09-14 12:52:00,
2013-09-14 08:57:00,57.2,54.0,29.88,NNW,337,2.3,0.0,89,0.00,SCT,OVC,0.00,0.0,WeatherDisplay:10.37,2013-09-14 12:57:00,
2013-09-14 09:02:00,57.4,54.2,29.88,NNW,348,4.6,4.6,89,0.00,FEW,OVC,0.00,0.0,WeatherDisplay:10.37,2013-09-14 13:02:00,
2013-09-14 09:07:00,57.6,54.3,29.88,NNW,333,4.6,4.6,89,0.00,FEW,OVC,0.00,0.0,WeatherDisplay:10.37,2013-09-14 13:07:00,
2013-09-14 09:12:00,57.7,54.5,29.88,NW,309,5.8,5.8,89,0.00,FEW,OVC,0.00,0.0,WeatherDisplay:10.37,2013-09-14 13:12:00,
2013-09-14 09:17:00,58.1,54.6,29.88,NW,321,0.0,0.0,88,0.00,FEW,OVC,0.00,0.0,WeatherDisplay:10.37,2013-09-14 13:17:00,
2013-09-14 09:22:00,58.5,54.6,29.88,North,354,3.5,3.5,87,0.00,FEW,OVC,0.00,0.0,WeatherDisplay:10.37,2013-09-14 13:22:00,
2013-09-14 09:27:00,58.8,55.0,29.88,North,355,3.5,4.0,87,0.00,FEW,OVC,0.00,0.0,WeatherDisplay:10.37,2013-09-14 13:27:00,
2013-09-14 09:32:00,59.2,55.0,29.88,WNW,286,8.1,8.1,86,0.00,FEW,OVC,0.00,0.0,WeatherDisplay:10.37,2013-09-14 13:32:00,
2013-09-14 09:37:00,59.5,55.0,29.88,NNW,348,5.8,5.8,85,0.00,FEW,OVC,0.00,0.0,WeatherDisplay:10.37,2013-09-14 13:37:00,
2013-09-14 09:42:00,59.9,55.1,29.88,NW,322,4.6,4.6,84,0.00,FEW,OVC,0.00,0.0,WeatherDisplay:10.37,2013-09-14 13:42:00,
2013-09-14 09:47:00,60.3,55.4,29.88,NNW,327,3.5,3.5,84,0.00,FEW,OVC,0.00,0.0,WeatherDisplay:10.37,2013-09-14 13:47:00,
2013-09-14 09:52:00,60.6,55.1,29.88,WNW,293,3.5,3.5,82,0.00,FEW,OVC,0.00,0.0,WeatherDisplay:10.37,2013-09-14 13:52:00,
2013-09-14 09:57:00,61.3,55.5,29.88,WNW,293,8.1,8.1,81,0.00,FEW,OVC,0.00,0.0,WeatherDisplay:10.37,2013-09-14 13:57:00,
2013-09-14 10:02:00,61.9,55.6,29.88,NW,321,5.8,5.8,80,0.00,SCT,OVC,0.00,0.0,WeatherDisplay:10.37,2013-09-14 14:02:00,
2013-09-14 10:07:00,62.6,55.3,29.88,WNW,302,5.8,5.8,77,0.00,SCT,OVC,0.00,0.0,WeatherDisplay:10.37,2013-09-14 14:07:00,
2013-09-14 10:12:00,63.0,55.6,29.88,NNW,328,4.6,4.6,77,0.00,SCT,OVC,0.00,0.0,WeatherDisplay:10.37,2013-09-14 14:12:00,
2013-09-14 10:17:00,63.1,55.4,29.88,NW,316,5.8,5.8,76,0.00,SCT,OVC,0.00,0.0,WeatherDisplay:10.37,2013-09-14 14:17:00,
2013-09-14 10:22:00,63.5,55.8,29.88,NNW,348,6.9,6.9,76,0.00,SCT,OVC,0.00,0.0,WeatherDisplay:10.37,2013-09-14 14:22:00,
2013-09-14 10:27:00,63.9,55.0,29.88,WNW,301,5.8,5.8,73,0.00,SCT,OVC,0.00,0.0,WeatherDisplay:10.37,2013-09-14 14:27:00,
2013-09-14 10:32:00,64.4,55.6,29.88,North,352,8.1,8.1,73,0.00,SCT,OVC,0.00,0.0,WeatherDisplay:10.37,2013-09-14 14:32:00,
2013-09-14 10:37:00,64.8,55.5,29.88,North,11,8.1,8.1,72,0.00,SCT,OVC,0.00,0.0,WeatherDisplay:10.37,2013-09-14 14:37:00,
2013-09-14 10:42:00,65.5,56.2,29.88,West,277,5.8,5.8,72,0.00,SCT,OVC,0.00,0.0,WeatherDisplay:10.37,2013-09-14 14:42:00,
2013-09-14 10:47:00,65.5,55.8,29.88,North,4,5.8,5.8,71,0.00,SCT,OVC,0.00,0.0,WeatherDisplay:10.37,2013-09-14 14:47:00,
2013-09-14 10:52:00,65.3,55.3,29.88,WNW,293,4.6,0.0,70,0.00,SCT,OVC,0.00,0.0,WeatherDisplay:10.37,2013-09-14 14:52:00,
2013-09-14 10:57:00,65.1,55.1,29.88,NNW,344,5.8,5.8,70,0.00,SCT,OVC,0.00,0.0,WeatherDisplay:10.37,2013-09-14 14:57:00,
2013-09-14 11:02:00,65.1,54.7,29.88,NW,313,4.6,4.6,69,0.00,BKN,OVC,0.00,0.0,WeatherDisplay:10.37,2013-09-14 15:02:00,
2013-09-14 11:07:00,65.5,54.6,29.88,NW,316,3.5,3.5,68,0.00,BKN,OVC,0.00,0.0,WeatherDisplay:10.37,2013-09-14 15:07:00,
2013-09-14 11:12:00,65.5,54.2,29.88,North,355,2.3,2.7,67,0.00,BKN,OVC,0.00,0.0,WeatherDisplay:10.37,2013-09-14 15:12:00,
2013-09-14 11:17:00,65.3,53.6,29.88,NW,324,7.6,0.0,66,0.00,BKN,OVC,0.00,0.0,WeatherDisplay:10.37,2013-09-14 15:17:00,
2013-09-14 11:22:00,65.5,53.8,29.88,WNW,287,3.5,3.5,66,0.00,BKN,OVC,0.00,0.0,WeatherDisplay:10.37,2013-09-14 15:22:00,
2013-09-14 11:27:00,65.5,53.8,29.91,West,272,3.5,3.5,66,0.00,BKN,OVC,0.00,0.0,WeatherDisplay:10.37,2013-09-14 15:27:00,
2013-09-14 11:32:00,65.7,53.6,29.91,WNW,298,5.8,5.8,65,0.00,BKN,OVC,0.00,0.0,WeatherDisplay:10.37,2013-09-14 15:32:00,
2013-09-14 11:37:00,65.5,53.4,29.91,NNE,18,2.3,2.3,65,0.00,BKN,OVC,0.00,0.0,WeatherDisplay:10.37,2013-09-14 15:37:00,
2013-09-14 11:42:00,65.1,52.6,29.91,NW,316,5.8,5.8,64,0.00,BKN,OVC,0.00,0.0,WeatherDisplay:10.37,2013-09-14 15:42:00,
2013-09-14 11:47:00,64.6,52.5,29.91,WNW,302,8.1,8.1,65,0.00,BKN,OVC,0.00,0.0,WeatherDisplay:10.37,2013-09-14 15:47:00,
2013-09-14 11:52:00,64.6,52.5,29.91,NNW,343,3.5,3.5,65,0.00,BKN,OVC,0.00,0.0,WeatherDisplay:10.37,2013-09-14 15:52:00,
2013-09-14 11:57:00,64.6,52.5,29.91,NW,324,5.8,5.8,65,0.00,BKN,OVC,0.00,0.0,WeatherDisplay:10.37,2013-09-14 15:57:00,
2013-09-14 12:02:00,64.4,52.4,29.91,NNE,17,3.5,0.0,65,0.00,BKN,OVC,0.00,0.0,WeatherDisplay:10.37,2013-09-14 16:02:00,
2013-09-14 12:07:00,64.4,52.4,29.91,NNW,346,5.8,5.8,65,0.00,BKN,OVC,0.00,0.0,WeatherDisplay:10.37,2013-09-14 16:07:00,
2013-09-14 12:12:00,64.2,52.2,29.91,North,350,3.5,3.5,65,0.00,BKN,OVC,0.00,0.0,WeatherDisplay:10.37,2013-09-14 16:12:00,
2013-09-14 12:17:00,64.4,52.0,29.91,NW,305,5.8,5.8,64,0.00,BKN,OVC,0.00,0.0,WeatherDisplay:10.37,2013-09-14 16:17:00,
2013-09-14 12:22:00,64.9,52.5,29.91,NW,318,0.0,0.0,64,0.00,BKN,OVC,0.00,0.0,WeatherDisplay:10.37,2013-09-14 16:22:00,
2013-09-14 12:27:00,65.1,52.6,29.91,NNW,338,5.8,5.8,64,0.00,BKN,OVC,0.00,0.0,WeatherDisplay:10.37,2013-09-14 16:27:00,
2013-09-14 12:32:00,64.9,52.5,29.91,North,352,5.8,5.8,64,0.00,BKN,OVC,0.00,0.0,WeatherDisplay:10.37,2013-09-14 16:32:00,
2013-09-14 12:37:00,64.8,52.3,29.91,NW,306,4.6,0.0,64,0.00,BKN,OVC,0.00,0.0,WeatherDisplay:10.37,2013-09-14 16:37:00,
2013-09-14 12:42:00,64.8,52.7,29.91,WNW,300,8.1,8.1,65,0.00,BKN,OVC,0.00,0.0,WeatherDisplay:10.37,2013-09-14 16:42:00,
2013-09-14 12:47:00,64.8,52.3,29.91,WNW,290,5.8,5.8,64,0.00,BKN,OVC,0.00,0.0,WeatherDisplay:10.37,2013-09-14 16:47:00,
2013-09-14 12:52:00,64.8,52.3,29.91,NW,309,3.5,3.5,64,0.00,BKN,OVC,0.00,0.0,WeatherDisplay:10.37,2013-09-14 16:52:00,
2013-09-14 12:57:00,64.6,52.1,29.91,NNE,15,5.8,5.8,64,0.00,BKN,OVC,0.00,0.0,WeatherDisplay:10.37,2013-09-14 16:57:00,
2013-09-14 13:02:00,64.6,52.1,29.91,WNW,283,3.5,3.5,64,0.00,BKN,OVC,0.00,0.0,WeatherDisplay:10.37,2013-09-14 17:02:00,
2013-09-14 13:07:00,65.1,52.6,29.91,NW,321,0.0,0.0,64,0.00,BKN,OVC,0.00,0.0,WeatherDisplay:10.37,2013-09-14 17:07:00,
2013-09-14 13:12:00,66.0,53.5,29.91,NW,310,3.5,3.5,64,0.00,BKN,OVC,0.00,0.0,WeatherDisplay:10.37,2013-09-14 17:12:00,
2013-09-14 13:17:00,66.6,53.6,29.91,NW,325,0.0,2.2,63,0.00,BKN,OVC,0.00,0.0,WeatherDisplay:10.37,2013-09-14 17:17:00,
2013-09-14 13:22:00,67.1,54.1,29.91,WNW,290,0.0,0.0,63,0.00,BKN,OVC,0.00,0.0,WeatherDisplay:10.37,2013-09-14 17:22:00,
2013-09-14 13:27:00,67.5,54.0,29.91,WSW,238,2.3,0.0,62,0.00,BKN,OVC,0.00,0.0,WeatherDisplay:10.37,2013-09-14 17:27:00,
2013-09-14 13:32:00,67.8,54.3,29.91,NW,310,0.0,0.0,62,0.00,BKN,OVC,0.00,0.0,WeatherDisplay:10.37,2013-09-14 17:32:00,
2013-09-14 13:37:00,68.0,54.0,29.91,NNW,337,5.8,5.8,61,0.00,BKN,OVC,0.00,0.0,WeatherDisplay:10.37,2013-09-14 17:37:00,
2013-09-14 13:42:00,68.0,54.0,29.91,WNW,298,4.6,4.6,61,0.00,BKN,OVC,0.00,0.0,WeatherDisplay:10.37,2013-09-14 17:42:00,
2013-09-14 13:47:00,67.6,53.7,29.91,NNW,343,0.0,0.0,61,0.00,BKN,OVC,0.00,0.0,WeatherDisplay:10.37,2013-09-14 17:47:00,
2013-09-14 13:52:00,67.5,53.5,29.91,NNW,327,0.0,0.0,61,0.00,BKN,OVC,0.00,0.0,WeatherDisplay:10.37,2013-09-14 17:52:00,
2013-09-14 13:57:00,67.6,53.7,29.91,NW,313,0.0,0.0,61,0.00,BKN,OVC,0.00,0.0,WeatherDisplay:10.37,2013-09-14 17:57:00,
2013-09-14 14:02:00,67.6,53.7,29.91,NNW,346,3.5,3.5,61,0.00,BKN,OVC,0.00,0.0,WeatherDisplay:10.37,2013-09-14 18:02:00,
2013-09-14 14:07:00,67.6,53.7,29.91,NNW,347,0.0,0.0,61,0.00,BKN,OVC,0.00,0.0,WeatherDisplay:10.37,2013-09-14 18:07:00,
2013-09-14 14:12:00,67.3,53.4,29.91,West,281,3.5,0.0,61,0.00,BKN,OVC,0.00,0.0,WeatherDisplay:10.37,2013-09-14 18:12:00,
2013-09-14 14:17:00,67.1,53.2,29.91,NNW,348,5.8,5.8,61,0.00,BKN,OVC,0.00,0.0,WeatherDisplay:10.37,2013-09-14 18:17:00,
2013-09-14 14:22:00,66.9,53.0,29.91,NNW,348,8.1,8.1,61,0.00,BKN,OVC,0.00,0.0,WeatherDisplay:10.37,2013-09-14 18:22:00,
2013-09-14 14:27:00,66.9,53.0,29.91,NW,316,0.0,0.0,61,0.00,BKN,OVC,0.00,0.0,WeatherDisplay:10.37,2013-09-14 18:27:00,
2013-09-14 14:32:00,66.9,53.0,29.91,NNW,338,3.5,3.5,61,0.00,BKN,OVC,0.00,0.0,WeatherDisplay:10.37,2013-09-14 18:32:00,
2013-09-14 14:37:00,66.7,52.9,29.91,NNE,13,5.8,5.8,61,0.00,BKN,OVC,0.00,0.0,WeatherDisplay:10.37,2013-09-14 18:37:00,
2013-09-14 14:42:00,66.7,52.9,29.88,WNW,282,0.0,0.0,61,0.00,BKN,OVC,0.00,0.0,WeatherDisplay:10.37,2013-09-14 18:42:00,
2013-09-14 14:47:00,66.9,53.0,29.88,North,353,3.5,0.0,61,0.00,BKN,OVC,0.00,0.0,WeatherDisplay:10.37,2013-09-14 18:47:00,
2013-09-14 14:52:00,67.1,53.2,29.88,NW,325,3.5,3.5,61,0.00,BKN,OVC,0.00,0.0,WeatherDisplay:10.37,2013-09-14 18:52:00,
2013-09-14 14:57:00,67.6,53.7,29.91,WNW,299,5.8,5.8,61,0.00,BKN,OVC,0.00,0.0,WeatherDisplay:10.37,2013-09-14 18:57:00,
2013-09-14 15:02:00,68.0,54.0,29.91,NW,324,0.0,0.0,61,0.00,BKN,OVC,0.00,0.0,WeatherDisplay:10.37,2013-09-14 19:02:00,
2013-09-14 15:07:00,68.5,54.1,29.91,NW,305,0.0,0.0,60,0.00,BKN,OVC,0.00,0.0,WeatherDisplay:10.37,2013-09-14 19:07:00,
2013-09-14 15:12:00,68.9,54.4,29.91,NW,326,0.0,0.0,60,0.00,BKN,OVC,0.00,0.0,WeatherDisplay:10.37,2013-09-14 19:12:00,
2013-09-14 15:17:00,69.1,54.6,29.91,WNW,291,4.6,4.6,60,0.00,BKN,OVC,0.00,0.0,WeatherDisplay:10.37,2013-09-14 19:17:00,
2013-09-14 15:22:00,68.9,54.4,29.91,NW,314,5.8,5.8,60,0.00,BKN,OVC,0.00,0.0,WeatherDisplay:10.37,2013-09-14 19:22:00,
2013-09-14 15:27:00,68.4,53.5,29.91,WNW,300,0.0,0.0,59,0.00,BKN,OVC,0.00,0.0,WeatherDisplay:10.37,2013-09-14 19:27:00,
2013-09-14 15:32:00,68.0,53.6,29.91,WNW,283,5.8,0.0,60,0.00,BKN,OVC,0.00,0.0,WeatherDisplay:10.37,2013-09-14 19:32:00,
2013-09-14 15:37:00,67.6,53.3,29.91,North,356,3.5,3.5,60,0.00,BKN,OVC,0.00,0.0,WeatherDisplay:10.37,2013-09-14 19:37:00,
2013-09-14 15:42:00,67.5,53.1,29.91,WNW,293,0.0,0.0,60,0.00,BKN,OVC,0.00,0.0,WeatherDisplay:10.37,2013-09-14 19:42:00,
2013-09-14 15:47:00,67.6,53.3,29.91,WNW,302,5.8,0.0,60,0.00,BKN,OVC,0.00,0.0,WeatherDisplay:10.37,2013-09-14 19:47:00,
2013-09-14 15:52:00,68.0,53.6,29.91,NW,313,4.6,0.0,60,0.00,BKN,OVC,0.00,0.0,WeatherDisplay:10.37,2013-09-14 19:52:00,
2013-09-14 15:57:00,68.0,53.6,29.91,WNW,303,3.5,3.5,60,0.00,BKN,OVC,0.00,0.0,WeatherDisplay:10.37,2013-09-14 19:57:00,
2013-09-14 16:02:00,68.0,53.6,29.91,West,278,8.1,8.1,60,0.00,BKN,OVC,0.00,0.0,WeatherDisplay:10.37,2013-09-14 20:02:00,
2013-09-14 16:07:00,68.0,53.1,29.91,West,278,3.5,0.0,59,0.00,BKN,OVC,0.00,0.0,WeatherDisplay:10.37,2013-09-14 20:07:00,
2013-09-14 16:12:00,68.0,53.6,29.91,WNW,295,0.0,0.0,60,0.00,BKN,OVC,0.00,0.0,WeatherDisplay:10.37,2013-09-14 20:12:00,
2013-09-14 16:17:00,68.2,53.8,29.91,WNW,283,0.0,0.0,60,0.00,BKN,OVC,0.00,0.0,WeatherDisplay:10.37,2013-09-14 20:17:00,
2013-09-14 16:22:00,68.5,54.1,29.91,West,273,3.5,0.0,60,0.00,BKN,OVC,0.00,0.0,WeatherDisplay:10.37,2013-09-14 20:22:00,
2013-09-14 16:27:00,68.7,54.3,29.91,WNW,282,0.0,0.0,60,0.00,BKN,OVC,0.00,0.0,WeatherDisplay:10.37,2013-09-14 20:27:00,
2013-09-14 16:32:00,68.5,54.1,29.91,WSW,249,0.0,2.2,60,0.00,BKN,OVC,0.00,0.0,WeatherDisplay:10.37,2013-09-14 20:32:00,
2013-09-14 16:37:00,68.0,53.6,29.91,WNW,302,5.8,5.8,60,0.00,BKN,OVC,0.00,0.0,WeatherDisplay:10.37,2013-09-14 20:37:00,
2013-09-14 16:42:00,67.5,53.1,29.91,NNW,333,5.8,5.8,60,0.00,BKN,OVC,0.00,0.0,WeatherDisplay:10.37,2013-09-14 20:42:00,
2013-09-14 16:47:00,67.1,52.7,29.91,NW,323,4.6,0.0,60,0.00,BKN,OVC,0.00,0.0,WeatherDisplay:10.37,2013-09-14 20:47:00,
2013-09-14 16:52:00,66.7,52.4,29.91,NW,324,0.0,0.0,60,0.00,BKN,OVC,0.00,0.0,WeatherDisplay:10.37,2013-09-14 20:52:00,
2013-09-14 16:57:00,66.4,52.1,29.91,WNW,299,4.6,4.6,60,0.00,BKN,OVC,0.00,0.0,WeatherDisplay:10.37,2013-09-14 20:57:00,
2013-09-14 17:02:00,66.2,51.9,29.91,WNW,294,5.8,0.0,60,0.00,BKN,OVC,0.00,0.0,WeatherDisplay:10.37,2013-09-14 21:02:00,
2013-09-14 17:07:00,66.0,52.2,29.91,NW,310,5.8,5.8,61,0.00,SCT,OVC,0.00,0.0,WeatherDisplay:10.37,2013-09-14 21:07:00,
2013-09-14 17:12:00,65.8,52.0,29.94,WNW,291,0.0,2.2,61,0.00,SCT,OVC,0.00,0.0,WeatherDisplay:10.37,2013-09-14 21:12:00,
2013-09-14 17:17:00,65.7,52.3,29.94,WNW,293,0.0,0.0,62,0.00,SCT,OVC,0.00,0.0,WeatherDisplay:10.37,2013-09-14 21:17:00,
2013-09-14 17:22:00,65.7,52.7,29.94,WNW,283,2.3,2.7,63,0.00,SCT,OVC,0.00,0.0,WeatherDisplay:10.37,2013-09-14 21:22:00,
2013-09-14 17:27:00,65.5,52.5,29.94,NW,308,0.0,0.0,63,0.00,SCT,OVC,0.00,0.0,WeatherDisplay:10.37,2013-09-14 21:27:00,
2013-09-14 17:32:00,65.5,52.5,29.94,NW,307,0.0,0.0,63,0.00,SCT,OVC,0.00,0.0,WeatherDisplay:10.37,2013-09-14 21:32:00,
2013-09-14 17:37:00,65.3,52.8,29.94,North,2,0.0,0.0,64,0.00,SCT,OVC,0.00,0.0,WeatherDisplay:10.37,2013-09-14 21:37:00,
2013-09-14 17:42:00,65.1,52.2,29.94,NW,307,5.8,5.8,63,0.00,SCT,OVC,0.00,0.0,WeatherDisplay:10.37,2013-09-14 21:42:00,
2013-09-14 17:47:00,64.9,52.0,29.94,WNW,292,5.8,0.0,63,0.00,SCT,OVC,0.00,0.0,WeatherDisplay:10.37,2013-09-14 21:47:00,
2013-09-14 17:52:00,64.8,51.9,29.94,NNW,336,3.5,0.0,63,0.00,SCT,OVC,0.00,0.0,WeatherDisplay:10.37,2013-09-14 21:52:00,
2013-09-14 17:57:00,64.6,52.1,29.94,NNW,329,0.0,0.0,64,0.00,SCT,OVC,0.00,0.0,WeatherDisplay:10.37,2013-09-14 21:57:00,
2013-09-14 18:01:00,64.4,52.0,29.94,NW,309,0.0,0.0,64,0.00,SCT,OVC,0.00,0.0,WeatherDisplay:10.37,2013-09-14 22:01:00,
2013-09-14 18:06:00,64.2,52.2,29.94,WNW,295,5.8,5.8,65,0.00,SCT,OVC,0.00,0.0,WeatherDisplay:10.37,2013-09-14 22:06:00,
2013-09-14 18:11:00,64.0,52.0,29.94,WNW,302,4.6,4.6,65,0.00,SCT,OVC,0.00,0.0,WeatherDisplay:10.37,2013-09-14 22:11:00,
2013-09-14 18:16:00,63.7,51.7,29.94,WNW,298,5.8,5.8,65,0.00,SCT,OVC,0.00,0.0,WeatherDisplay:10.37,2013-09-14 22:16:00,
2013-09-14 18:21:00,63.5,51.9,29.94,NW,319,0.0,0.0,66,0.00,SCT,OVC,0.00,0.0,WeatherDisplay:10.37,2013-09-14 22:21:00,
2013-09-14 18:26:00,63.3,51.8,29.97,NW,319,0.0,0.0,66,0.00,SCT,OVC,0.00,0.0,WeatherDisplay:10.37,2013-09-14 22:26:00,
2013-09-14 18:31:00,63.0,51.8,29.97,North,8,0.0,2.7,67,0.00,SCT,OVC,0.00,0.0,WeatherDisplay:10.37,2013-09-14 22:31:00,
2013-09-14 18:36:00,62.8,51.7,29.97,WNW,282,3.5,3.6,67,0.00,SCT,OVC,0.00,0.0,WeatherDisplay:10.37,2013-09-14 22:36:00,
2013-09-14 18:41:00,62.6,51.5,29.97,NW,307,5.8,5.8,67,0.00,SCT,OVC,0.00,0.0,WeatherDisplay:10.37,2013-09-14 22:41:00,
2013-09-14 18:46:00,62.2,51.5,29.97,NW,318,2.3,0.0,68,0.00,SCT,OVC,0.00,0.0,WeatherDisplay:10.37,2013-09-14 22:46:00,
2013-09-14 18:49:00,62.2,51.5,29.97,NNW,330,2.3,0.0,68,0.00,SCT,OVC,0.00,0.0,WeatherDisplay:10.37,2013-09-14 22:49:00,
2013-09-14 18:54:00,61.9,51.2,29.97,West,271,0.0,0.0,68,0.00,SCT,OVC,0.00,0.0,WeatherDisplay:10.37,2013-09-14 22:54:00,
2013-09-14 18:59:00,61.7,51.4,29.97,WNW,286,0.0,0.0,69,0.00,SCT,OVC,0.00,0.0,WeatherDisplay:10.37,2013-09-14 22:59:00,
2013-09-14 19:04:00,61.3,51.1,29.97,WNW,299,0.0,0.0,69,0.00,FEW,OVC,0.00,0.0,WeatherDisplay:10.37,2013-09-14 23:04:00,
2013-09-14 19:09:00,61.0,51.1,29.97,WNW,299,4.6,4.6,70,0.00,FEW,OVC,0.00,0.0,WeatherDisplay:10.37,2013-09-14 23:09:00,
2013-09-14 19:14:00,60.6,51.2,29.97,NW,306,0.0,0.0,71,0.00,FEW,OVC,0.00,0.0,WeatherDisplay:10.37,2013-09-14 23:14:00,
2013-09-14 19:19:00,60.3,50.8,29.97,WNW,299,0.0,0.0,71,0.00,FEW,OVC,0.00,0.0,WeatherDisplay:10.37,2013-09-14 23:19:00,
2013-09-14 19:24:00,59.9,50.8,29.97,WNW,303,3.5,3.5,72,0.00,FEW,OVC,0.00,0.0,WeatherDisplay:10.37,2013-09-14 23:24:00,
2013-09-14 19:29:00,59.7,50.7,29.97,NW,317,0.0,0.0,72,0.00,FEW,OVC,0.00,0.0,WeatherDisplay:10.37,2013-09-14 23:29:00,
2013-09-14 19:34:00,59.5,50.9,29.97,NW,313,4.6,4.6,73,0.00,FEW,OVC,0.00,0.0,WeatherDisplay:10.37,2013-09-14 23:34:00,
2013-09-14 19:39:00,59.4,50.7,29.97,NW,306,0.0,0.0,73,0.00,FEW,OVC,0.00,0.0,WeatherDisplay:10.37,2013-09-14 23:39:00,
2013-09-14 19:44:00,59.2,50.9,29.97,WNW,293,3.5,0.0,74,0.00,FEW,OVC,0.00,0.0,WeatherDisplay:10.37,2013-09-14 23:44:00,
2013-09-14 19:49:00,59.0,50.7,29.97,WNW,297,0.0,0.0,74,0.00,FEW,OVC,0.00,0.0,WeatherDisplay:10.37,2013-09-14 23:49:00,
2013-09-14 19:54:00,58.8,50.9,29.97,WNW,295,0.0,0.0,75,0.00,FEW,OVC,0.00,0.0,WeatherDisplay:10.37,2013-09-14 23:54:00,
2013-09-14 19:59:00,58.6,50.7,30.00,NNW,329,3.5,0.0,75,0.00,FEW,OVC,0.00,0.0,WeatherDisplay:10.37,2013-09-14 23:59:00,
2013-09-14 20:04:00,58.5,50.6,30.00,NNW,329,0.0,0.0,75,0.00,FEW,OVC,0.00,0.0,WeatherDisplay:10.37,2013-09-15 00:04:00,
2013-09-14 20:09:00,58.1,50.6,30.00,NNW,329,0.0,0.0,76,0.00,FEW,OVC,0.00,0.0,WeatherDisplay:10.37,2013-09-15 00:09:00,
2013-09-14 20:14:00,57.9,50.4,30.00,NNW,329,0.0,0.0,76,0.00,FEW,OVC,0.00,0.0,WeatherDisplay:10.37,2013-09-15 00:14:00,
2013-09-14 20:19:00,57.9,50.4,30.00,NW,321,0.0,0.0,76,0.00,FEW,OVC,0.00,0.0,WeatherDisplay:10.37,2013-09-15 00:19:00,
2013-09-14 20:24:00,57.9,50.4,30.00,NW,321,0.0,0.0,76,0.00,FEW,OVC,0.00,0.0,WeatherDisplay:10.37,2013-09-15 00:24:00,
2013-09-14 20:29:00,57.9,50.4,30.00,NW,326,0.0,0.0,76,0.00,FEW,OVC,0.00,0.0,WeatherDisplay:10.37,2013-09-15 00:29:00,
2013-09-14 20:34:00,57.7,50.6,30.00,NNW,327,0.0,0.0,77,0.00,FEW,OVC,0.00,0.0,WeatherDisplay:10.37,2013-09-15 00:34:00,
2013-09-14 20:39:00,57.7,50.6,30.00,NW,310,0.0,0.0,77,0.00,FEW,OVC,0.00,0.0,WeatherDisplay:10.37,2013-09-15 00:39:00,
2013-09-14 20:44:00,57.6,50.4,30.00,NW,311,0.0,0.0,77,0.00,FEW,OVC,0.00,0.0,WeatherDisplay:10.37,2013-09-15 00:44:00,
2013-09-14 20:49:00,57.2,50.1,30.00,NW,311,0.0,0.0,77,0.00,FEW,OVC,0.00,0.0,WeatherDisplay:10.37,2013-09-15 00:49:00,
2013-09-14 20:54:00,57.0,49.9,30.00,NW,311,0.0,0.0,77,0.00,FEW,OVC,0.00,0.0,WeatherDisplay:10.37,2013-09-15 00:54:00,
2013-09-14 20:59:00,56.8,50.1,30.03,NW,310,0.0,0.0,78,0.00,FEW,OVC,0.00,0.0,WeatherDisplay:10.37,2013-09-15 00:59:00,
2013-09-14 21:04:00,56.7,49.9,30.03,NW,310,0.0,0.0,78,0.00,FEW,OVC,0.00,0.0,WeatherDisplay:10.37,2013-09-15 01:04:00,
2013-09-14 21:09:00,56.7,49.9,30.03,NW,311,0.0,0.0,78,0.00,FEW,OVC,0.00,0.0,WeatherDisplay:10.37,2013-09-15 01:09:00,
2013-09-14 21:14:00,56.3,49.9,30.03,NW,310,0.0,0.0,79,0.00,FEW,OVC,0.00,0.0,WeatherDisplay:10.37,2013-09-15 01:14:00,
2013-09-14 21:19:00,56.3,49.9,30.03,NW,311,0.0,0.0,79,0.00,FEW,OVC,0.00,0.0,WeatherDisplay:10.37,2013-09-15 01:19:00,
2013-09-14 21:24:00,56.1,49.7,30.03,NW,311,0.0,0.0,79,0.00,FEW,OVC,0.00,0.0,WeatherDisplay:10.37,2013-09-15 01:24:00,
2013-09-14 21:29:00,55.9,49.9,30.03,NW,311,0.0,0.0,80,0.00,FEW,OVC,0.00,0.0,WeatherDisplay:10.37,2013-09-15 01:29:00,
2013-09-14 21:34:00,55.8,49.7,30.03,NW,311,0.0,0.0,80,0.00,FEW,OVC,0.00,0.0,WeatherDisplay:10.37,2013-09-15 01:34:00,
2013-09-14 21:39:00,55.6,49.5,30.03,NW,310,0.0,0.0,80,0.00,FEW,OVC,0.00,0.0,WeatherDisplay:10.37,2013-09-15 01:39:00,
2013-09-14 21:44:00,55.4,49.3,30.03,NW,310,0.0,0.0,80,0.00,FEW,OVC,0.00,0.0,WeatherDisplay:10.37,2013-09-15 01:44:00,
2013-09-14 21:49:00,55.2,49.5,30.03,NW,310,0.0,0.0,81,0.00,FEW,OVC,0.00,0.0,WeatherDisplay:10.37,2013-09-15 01:49:00,
2013-09-14 21:54:00,55.2,49.5,30.03,NW,311,0.0,0.0,81,0.00,FEW,OVC,0.00,0.0,WeatherDisplay:10.37,2013-09-15 01:54:00,
2013-09-14 21:59:00,55.0,49.6,30.03,NW,310,0.0,0.0,82,0.00,FEW,OVC,0.00,0.0,WeatherDisplay:10.37,2013-09-15 01:59:00,
2013-09-14 22:04:00,54.9,49.8,30.03,NW,310,0.0,0.0,83,0.00,FEW,OVC,0.00,0.0,WeatherDisplay:10.37,2013-09-15 02:04:00,
2013-09-14 22:09:00,54.7,49.6,30.03,NW,311,0.0,0.0,83,0.00,FEW,OVC,0.00,0.0,WeatherDisplay:10.37,2013-09-15 02:09:00,
2013-09-14 22:14:00,54.7,49.9,30.03,NW,311,0.0,0.0,84,0.00,FEW,OVC,0.00,0.0,WeatherDisplay:10.37,2013-09-15 02:14:00,
2013-09-14 22:19:00,54.5,49.8,30.03,NW,316,0.0,0.0,84,0.00,FEW,OVC,0.00,0.0,WeatherDisplay:10.37,2013-09-15 02:19:00,
2013-09-14 22:24:00,54.5,49.8,30.03,NW,308,0.0,0.0,84,0.00,FEW,OVC,0.00,0.0,WeatherDisplay:10.37,2013-09-15 02:24:00,
2013-09-14 22:29:00,54.5,50.1,30.03,NW,319,0.0,0.0,85,0.00,FEW,OVC,0.00,0.0,WeatherDisplay:10.37,2013-09-15 02:29:00,
2013-09-14 22:34:00,54.3,50.2,30.03,NW,320,0.0,0.0,86,0.00,FEW,OVC,0.00,0.0,WeatherDisplay:10.37,2013-09-15 02:34:00,
2013-09-14 22:39:00,54.3,50.2,30.03,NW,312,0.0,0.0,86,0.00,FEW,OVC,0.00,0.0,WeatherDisplay:10.37,2013-09-15 02:39:00,
2013-09-14 22:44:00,54.3,50.5,30.03,NW,304,0.0,0.0,87,0.00,FEW,OVC,0.00,0.0,WeatherDisplay:10.37,2013-09-15 02:44:00,
2013-09-14 22:49:00,54.3,50.5,30.03,NW,306,0.0,0.0,87,0.00,FEW,OVC,0.00,0.0,WeatherDisplay:10.37,2013-09-15 02:49:00,
2013-09-14 22:54:00,54.3,50.5,30.03,WNW,288,0.0,0.0,87,0.00,FEW,OVC,0.00,0.0,WeatherDisplay:10.37,2013-09-15 02:54:00,
2013-09-14 22:59:00,54.5,51.0,30.03,NW,305,2.3,2.3,88,0.00,FEW,OVC,0.00,0.0,WeatherDisplay:10.37,2013-09-15 02:59:00,
2013-09-14 23:04:00,54.5,51.0,30.03,NW,309,3.5,3.5,88,0.00,FEW,OVC,0.00,0.0,WeatherDisplay:10.37,2013-09-15 03:04:00,
2013-09-14 23:09:00,54.5,51.0,30.03,NW,316,3.5,3.5,88,0.00,FEW,OVC,0.00,0.0,WeatherDisplay:10.37,2013-09-15 03:09:00,
2013-09-14 23:14:00,54.3,51.1,30.03,WNW,300,3.5,3.5,89,0.00,FEW,OVC,0.00,0.0,WeatherDisplay:10.37,2013-09-15 03:14:00,
2013-09-14 23:19:00,54.3,51.1,30.03,NW,318,3.5,3.5,89,0.00,FEW,OVC,0.00,0.0,WeatherDisplay:10.37,2013-09-15 03:19:00,
2013-09-14 23:24:00,54.1,51.0,30.03,NW,308,5.8,5.8,89,0.00,FEW,OVC,0.00,0.0,WeatherDisplay:10.37,2013-09-15 03:24:00,
2013-09-14 23:29:00,54.1,51.0,30.03,WNW,297,3.5,3.5,89,0.00,FEW,OVC,0.00,0.0,WeatherDisplay:10.37,2013-09-15 03:29:00,
2013-09-14 23:34:00,54.0,50.8,30.03,WNW,299,3.5,3.5,89,0.00,FEW,OVC,0.00,0.0,WeatherDisplay:10.37,2013-09-15 03:34:00,
2013-09-14 23:39:00,54.0,50.8,30.03,WNW,301,5.8,5.8,89,0.00,FEW,OVC,0.00,0.0,WeatherDisplay:10.37,2013-09-15 03:39:00,
2013-09-14 23:44:00,54.1,51.0,30.03,WNW,285,3.5,3.6,89,0.00,FEW,OVC,0.00,0.0,WeatherDisplay:10.37,2013-09-15 03:44:00,
2013-09-14 23:49:00,54.1,51.0,30.03,NW,315,3.5,3.5,89,0.00,FEW,OVC,0.00,0.0,WeatherDisplay:10.37,2013-09-15 03:49:00,
2013-09-14 23:54:00,54.3,51.1,30.03,WNW,302,3.5,3.5,89,0.00,FEW,OVC,0.00,0.0,WeatherDisplay:10.37,2013-09-15 03:54:00,
2013-09-14 23:59:00,54.3,51.1,30.03,WNW,288,3.5,3.5,89,0.00,FEW,OVC,0.00,0.0,WeatherDisplay:10.37,2013-09-15 03:59:00,